Wind_Speed
38 37 36 35 36 36 37 38 38 38 38 38 39 39 40 41 43 44 44 45 46 46 46 46 46 46 46 46 46 46 46 46 48 49 49 49 50 50 50 51 52 53 52 51 50 51 52 53 55 57 58 60 61 64 66 67 67 67 67 67 66 65 63 61 59 56 54 53 51 49 47 45 43 41 40 39 38 38 38 37 37 40 44 45 45
39 38 37 37 36 37 38 39 39 40 40 41 42 43 43 44 45 45 46 47 47 47 47 46 46 47 47 47 47 48 48 49 50 50 50 50 50 50 51 52 53 53 52 51 51 52 53 55 57 59 60 62 63 66 68 69 69 68 69 68 67 65 63 61 59 57 54 52 50 48 47 44 42 41 40 39 39 38 39 39 39 41 45 48 49
39 39 39 39 39 40 40 41 41 41 42 43 43 44 45 46 46 47 47 48 48 48 47 47 47 47 48 49 50 51 51 52 52 51 51 50 50 51 51 53 53 53 52 52 52 53 55 57 59 60 62 63 66 68 70 70 70 70 70 70 68 66 65 62 60 58 55 53 52 50 48 45 43 41 40 40 40 40 39 40 41 43 46 50 53
40 41 41 41 41 41 42 43 43 43 43 44 44 45 46 46 46 47 47 48 48 48 48 48 48 48 49 50 52 53 54 54 53 53 52 51 51 51 52 53 53 53 53 53 53 55 57 59 61 62 63 65 68 70 71 71 71 71 71 71 69 67 65 63 61 59 57 56 54 53 51 48 46 44 42 41 41 42 42 41 41 44 47 51 55
41 41 41 41 41 41 42 43 43 43 44 45 45 46 47 46 46 47 48 48 48 48 49 48 48 49 50 52 53 55 55 55 54 54 53 53 52 52 53 53 53 53 53 53 54 57 59 61 62 63 64 67 70 71 71 72 72 72 72 71 69 66 64 62 61 60 59 58 56 55 53 51 49 48 46 45 44 43 45 45 44 44 47 50 55
42 42 41 41 42 43 44 44 44 44 45 45 45 45 45 45 46 47 48 48 48 48 48 48 48 49 51 52 54 55 55 55 55 54 54 53 53 53 54 54 54 54 53 54 56 59 61 62 63 65 67 70 72 72 72 73 73 72 71 70 68 66 64 62 61 60 60 59 58 56 54 52 51 50 50 50 49 47 47 48 48 48 48 49 53
43 43 42 43 43 44 45 46 46 47 47 46 45 44 44 44 45 46 47 47 47 47 47 48 49 50 51 53 54 55 55 55 54 54 54 54 54 54 55 55 55 55 55 56 59 61 62 63 65 67 70 72 72 73 73 73 72 71 70 69 67 65 64 63 62 62 61 60 59 57 55 54 53 53 52 52 53 53 51 51 50 50 50 51 52
44 43 43 43 44 45 46 46 47 48 48 47 46 45 45 45 45 46 47 47 47 47 48 49 50 51 52 53 53 54 54 54 54 54 54 54 54 55 55 55 55 56 57 58 60 62 63 65 67 69 71 72 73 73 73 72 71 70 69 67 66 65 65 65 64 64 63 62 61 59 57 56 56 55 55 54 53 53 53 53 52 52 52 52 53
45 44 44 45 45 46 46 46 47 47 48 47 47 47 47 47 47 48 49 49 49 49 50 50 51 52 52 53 53 53 53 53 53 54 54 54 55 55 56 56 56 57 58 60 61 63 65 67 69 71 72 72 72 72 72 71 70 69 67 66 65 66 66 66 66 66 65 64 62 61 59 59 58 57 56 55 53 51 49 49 49 50 51 51 52
46 46 46 47 48 48 48 49 49 49 49 49 49 48 48 48 49 49 49 49 49 50 51 51 51 52 52 52 52 52 52 53 53 53 54 54 54 55 56 56 57 58 60 61 62 64 67 69 70 71 72 72 72 72 71 70 69 67 66 65 66 67 67 67 67 67 66 65 64 63 61 59 58 57 55 54 53 51 48 45 44 44 46 48 49
48 48 48 48 49 49 49 49 49 49 50 49 49 48 48 48 48 49 49 49 50 50 51 51 51 52 52 51 52 52 52 52 52 53 53 54 55 56 57 57 59 60 61 62 64 67 68 69 70 71 71 71 71 71 70 69 67 66 65 65 66 67 68 67 67 67 66 65 65 63 61 59 57 55 54 52 50 49 47 45 43 41 40 42 45
48 49 50 50 50 49 49 49 49 49 49 49 49 49 48 48 49 50 50 51 51 52 52 52 52 52 52 51 51 51 51 52 53 53 54 55 56 57 58 59 60 61 63 65 67 68 69 69 70 71 71 70 70 69 68 67 66 65 65 65 66 67 68 68 67 67 66 66 65 63 61 59 57 55 53 51 48 46 45 43 42 40 38 38 40
48 49 51 51 51 50 49 49 48 48 48 49 49 49 49 50 51 52 52 53 54 54 53 53 52 52 51 51 51 51 52 53 54 54 55 56 58 59 59 60 62 63 65 67 68 68 68 69 70 70 70 69 68 67 66 65 65 65 66 66 66 67 67 68 67 67 67 66 65 63 61 60 58 56 53 50 48 45 43 42 40 38 37 36 36
47 49 50 50 49 48 47 47 47 48 48 49 49 50 51 53 54 54 55 55 54 53 52 51 51 51 51 51 52 52 53 54 55 56 56 58 59 60 61 62 63 65 67 68 68 68 68 69 69 69 68 67 66 65 65 64 65 66 66 66 66 67 67 67 67 67 67 67 65 63 61 60 58 55 52 49 47 44 42 40 39 37 36 35 34
46 47 47 47 46 46 46 47 48 49 49 49 50 52 54 55 56 56 55 54 52 50 50 51 51 52 52 52 53 54 55 56 56 57 58 59 60 62 62 64 65 66 67 68 68 68 68 68 68 67 66 65 64 64 63 64 65 66 67 66 67 67 66 66 66 67 68 67 65 63 62 60 57 53 50 47 44 42 41 39 38 36 34 34 33
44 45 46 47 47 47 47 47 47 48 49 51 52 53 55 55 56 56 55 53 52 53 54 55 55 54 55 55 56 57 57 57 57 58 59 60 62 63 64 65 66 67 67 68 68 67 67 67 66 65 64 63 63 63 63 64 65 66 66 67 67 66 65 65 66 67 68 68 66 64 63 60 56 52 49 45 42 39 38 37 36 35 34 32 32
45 46 47 47 47 47 46 45 44 45 48 50 52 53 54 54 54 55 55 55 57 58 59 58 57 57 57 58 57 58 58 58 58 59 60 62 63 64 65 66 67 67 67 67 67 66 65 65 64 62 62 62 62 62 63 64 65 65 66 67 66 66 65 65 66 67 68 68 67 65 63 60 56 52 47 44 40 38 36 34 33 32 32 32 31
45 46 47 47 47 45 44 45 47 49 52 52 52 53 54 54 54 54 56 57 59 59 58 58 58 58 58 59 59 59 59 59 59 59 61 63 64 65 66 66 67 67 67 66 65 64 63 62 61 61 61 61 61 62 63 64 64 65 65 65 65 64 64 64 65 67 68 68 67 65 62 58 54 50 46 43 39 37 35 33 31 30 30 29 30
44 44 44 44 43 41 40 42 44 47 52 53 52 52 53 54 55 56 57 57 57 56 56 57 58 59 59 60 60 61 60 59 59 61 63 64 65 65 66 66 66 66 65 64 63 62 61 61 60 60 60 60 61 62 63 63 64 64 64 63 62 62 62 64 65 66 67 67 66 65 62 58 53 49 45 42 39 36 34 33 31 30 29 28 27
38 39 39 39 39 38 38 37 37 41 49 53 54 56 57 56 56 56 56 55 55 55 56 57 58 59 59 60 60 60 59 59 60 62 64 65 66 66 66 66 65 64 63 62 61 60 60 60 59 59 59 60 61 62 63 64 64 64 63 62 60 60 61 63 64 66 66 66 65 64 61 57 53 48 44 41 38 36 34 33 31 30 29 28 27
36 38 39 39 41 40 38 36 35 40 49 55 57 57 56 55 54 54 53 53 54 56 57 57 57 58 58 58 59 59 58 60 62 64 66 66 66 65 65 64 63 62 61 60 60 59 59 59 59 59 59 60 61 62 63 64 64 64 62 60 58 58 59 61 63 65 66 65 64 63 60 56 52 47 43 40 38 36 34 33 32 30 29 27 26
41 44 43 43 44 43 40 38 39 44 50 55 55 53 50 49 50 51 52 54 56 57 57 56 56 57 57 57 58 58 60 62 64 65 66 65 65 64 63 62 61 60 59 58 59 59 59 58 58 58 59 61 62 63 63 64 64 62 60 58 57 57 58 60 62 63 64 65 64 62 59 55 51 46 42 40 39 37 35 33 32 31 29 28 26
42 44 45 44 43 43 41 40 42 45 49 54 55 53 52 51 50 52 54 57 58 57 57 56 56 57 58 59 60 62 64 65 65 64 64 64 63 62 61 60 59 58 57 57 58 58 58 58 58 58 60 61 62 63 63 63 63 61 58 56 55 55 57 58 60 62 63 64 64 62 59 55 50 45 41 39 38 37 35 33 32 31 30 29 28
46 46 45 44 43 43 41 39 41 44 49 54 56 56 56 56 56 56 57 57 58 57 56 56 57 58 60 62 63 64 65 65 64 64 63 62 61 60 59 57 56 56 56 57 58 58 58 57 58 59 60 61 62 63 63 63 61 58 55 53 53 55 56 57 59 60 61 62 63 62 59 55 51 45 40 37 36 36 35 33 31 30 29 29 28
45 46 46 47 47 46 43 41 43 47 52 56 57 58 59 58 58 57 57 56 56 56 56 57 59 60 62 63 63 64 64 64 64 63 62 61 60 58 56 55 55 55 57 58 59 58 57 57 58 59 60 61 62 63 63 62 59 56 53 51 52 54 55 56 57 59 60 61 62 61 60 57 52 47 42 38 36 35 34 33 31 29 28 28 28
46 45 45 44 42 40 39 39 43 49 52 54 55 56 55 55 56 56 56 57 57 58 59 60 61 61 63 63 64 64 65 64 63 62 61 59 58 56 55 54 55 57 59 59 58 57 56 57 58 59 60 61 62 62 61 60 57 54 51 50 52 53 54 55 56 57 59 59 60 60 60 57 54 50 45 40 38 36 34 33 31 30 28 26 26
45 44 42 39 37 37 39 42 48 51 52 52 52 52 52 53 55 56 57 58 59 60 62 63 63 64 65 66 66 66 66 65 62 60 59 57 55 54 54 55 57 59 60 59 57 55 56 57 58 59 60 61 61 61 60 58 55 52 50 50 52 52 53 54 55 56 58 58 59 59 59 58 55 52 47 42 39 37 34 32 31 30 28 26 25
44 42 38 35 36 38 41 45 50 52 52 51 51 52 54 56 57 58 60 62 64 64 65 66 67 67 68 67 66 65 63 61 59 58 56 55 55 55 56 57 59 60 59 56 54 54 56 57 58 59 60 61 61 60 59 56 53 51 50 51 51 52 53 54 54 56 57 58 58 58 59 58 56 53 49 44 40 38 36 34 31 30 29 28 26
45 43 39 37 38 40 43 46 49 50 51 53 54 57 59 61 62 64 66 67 67 66 66 68 69 69 67 65 63 61 59 58 58 57 57 56 56 57 58 58 58 57 55 53 53 54 55 56 58 59 60 60 60 59 57 55 53 51 50 50 51 52 53 53 54 56 57 57 58 58 58 58 57 54 51 47 42 39 37 35 32 30 29 29 28
47 47 45 46 48 49 50 51 53 54 55 58 60 62 65 67 68 68 68 67 66 66 68 70 69 66 63 61 60 60 59 59 59 58 58 57 56 56 55 54 53 52 52 52 53 54 55 56 58 59 59 59 59 57 56 54 52 51 50 50 50 51 52 53 54 56 57 57 58 58 58 58 57 56 53 49 45 41 38 36 33 31 29 29 29
50 50 49 49 52 55 56 57 58 59 61 63 65 67 68 69 69 68 67 67 68 69 70 69 65 61 60 60 61 61 61 60 59 57 56 54 53 51 50 50 49 50 51 52 52 54 55 56 58 58 59 58 57 56 54 53 51 50 49 49 50 50 51 52 54 56 57 58 58 58 59 58 58 57 55 52 48 44 40 37 35 32 30 29 28
50 49 50 51 52 55 57 59 61 62 63 65 66 67 68 68 68 68 69 69 69 68 67 64 61 61 62 62 63 62 61 60 58 55 53 52 51 50 49 49 49 50 51 51 53 54 55 56 57 57 57 56 55 54 53 51 50 49 48 49 49 50 51 53 55 56 58 59 59 60 59 59 58 58 56 54 51 48 43 40 37 35 32 30 29
48 48 52 55 56 56 58 59 61 62 64 65 66 67 68 68 68 68 68 67 65 64 63 62 62 63 64 64 64 62 60 58 57 55 53 52 51 50 49 50 50 51 51 52 53 54 55 56 56 56 55 54 53 52 51 49 48 48 48 48 49 50 52 54 55 57 59 60 60 61 61 60 59 59 57 56 53 50 47 43 40 37 35 33 31
49 50 54 57 57 58 59 60 60 61 63 64 65 66 66 66 66 66 65 64 63 63 63 63 63 64 65 65 64 61 59 58 56 54 53 52 51 51 51 51 51 51 51 52 53 53 54 55 55 54 54 53 52 51 49 48 48 48 48 49 50 51 53 55 56 58 60 61 61 62 62 62 61 60 59 57 55 53 49 45 42 39 37 35 33
52 53 55 56 57 58 59 59 60 61 61 62 63 64 64 64 65 64 64 63 63 63 64 64 65 65 66 65 62 60 58 56 54 53 52 51 51 51 51 51 51 51 52 52 53 53 54 54 54 53 53 52 52 51 49 48 48 49 49 50 51 52 54 56 58 59 61 62 63 63 64 64 63 62 61 59 57 55 52 48 44 41 39 36 34
53 54 55 56 58 60 61 61 61 61 62 62 63 63 63 64 64 64 64 64 64 65 65 66 66 66 65 64 61 59 57 55 53 52 51 50 50 50 50 50 50 51 52 52 53 54 54 53 53 53 52 52 52 52 50 49 50 50 51 52 52 54 55 57 59 61 63 63 64 65 66 66 65 64 62 61 59 57 54 51 46 42 40 38 36
54 55 56 57 60 63 64 64 64 64 63 63 63 63 63 64 64 64 65 65 65 65 66 66 66 65 64 62 59 56 55 53 52 50 49 49 49 49 49 50 51 51 52 53 53 54 54 53 53 53 52 53 53 52 51 51 51 52 53 54 54 55 57 59 61 63 64 65 66 67 68 68 67 66 64 63 62 60 57 54 49 44 41 38 37
57 57 57 58 61 64 66 65 65 65 65 64 64 64 64 65 66 66 66 66 66 66 66 66 65 64 62 58 55 54 53 52 50 49 48 48 49 49 49 50 51 52 53 54 54 54 54 54 54 53 53 54 54 54 53 52 52 54 55 56 56 57 58 60 62 64 66 67 68 68 69 70 69 68 66 65 63 61 59 56 52 47 43 39 37
59 58 58 59 61 64 66 66 66 66 66 66 66 66 66 66 67 67 67 67 67 67 66 65 64 62 58 55 53 52 51 49 48 48 48 48 48 49 50 51 52 53 54 55 55 55 55 55 55 54 54 55 56 55 54 53 54 56 57 58 57 58 60 62 64 66 67 69 70 70 71 72 72 71 69 67 65 63 61 58 54 49 45 41 38
60 60 60 61 62 65 67 67 67 67 67 68 68 67 67 68 68 68 68 68 68 67 66 64 62 59 56 53 52 50 49 47 46 47 48 48 49 50 51 52 54 54 55 56 56 56 56 56 56 55 56 57 58 57 55 55 56 57 59 59 59 60 62 63 65 67 69 70 71 72 73 74 74 73 72 70 68 65 62 59 55 51 47 43 39
62 61 62 62 63 65 67 68 68 68 69 69 68 67 67 67 67 68 68 67 66 65 64 62 59 56 54 52 51 49 48 47 47 48 49 50 51 51 52 54 55 55 56 56 57 57 57 57 57 57 58 59 59 58 57 57 57 59 60 61 61 62 64 65 67 69 70 71 73 73 74 75 76 76 75 73 71 68 64 60 56 51 47 44 41
63 62 63 63 63 64 66 67 68 69 68 67 66 65 65 65 65 65 65 64 62 61 59 58 56 55 54 52 51 50 49 49 49 50 51 52 52 53 54 54 55 56 56 57 58 58 58 58 59 60 61 61 61 59 58 59 59 61 62 63 64 65 66 67 69 70 72 73 74 74 76 77 78 79 78 76 73 71 67 62 57 51 47 45 42
61 61 61 62 62 63 64 65 67 67 67 66 65 64 63 62 61 61 61 59 58 56 55 55 55 55 54 53 52 51 51 51 51 52 53 53 54 54 55 55 56 56 57 58 58 59 59 60 61 62 63 64 63 61 60 61 61 62 64 65 66 68 69 70 71 72 73 74 74 75 77 79 80 80 79 78 76 73 69 64 58 52 47 44 42
58 58 58 59 60 62 63 64 65 66 66 65 64 62 60 58 57 57 57 55 53 52 53 54 55 55 55 54 54 53 52 52 52 53 54 55 55 56 56 57 58 58 59 59 59 60 61 63 64 65 66 66 65 63 62 63 64 65 66 67 69 70 72 73 74 75 75 76 76 77 78 80 81 81 81 79 78 75 70 65 58 53 48 44 41
57 57 57 56 57 59 61 62 63 63 63 63 62 59 57 55 53 52 51 51 52 53 55 57 57 56 55 55 54 54 53 53 53 54 54 55 56 57 58 59 60 61 61 61 61 62 63 65 66 67 68 67 66 64 64 65 66 67 68 70 72 73 75 76 77 78 78 78 78 79 80 81 82 82 81 80 79 76 71 64 58 52 47 44 41
56 55 54 54 54 56 57 58 58 58 58 58 59 58 56 53 51 50 50 52 54 56 59 60 61 59 56 54 54 53 53 53 53 54 55 56 58 59 60 61 63 63 63 63 63 65 66 67 68 69 69 68 67 66 66 66 67 69 70 72 74 76 78 79 80 80 81 81 81 82 82 82 82 82 81 80 78 75 69 63 57 52 47 43 41
52 51 50 50 51 52 52 52 53 52 53 54 56 58 56 52 49 50 53 56 58 60 62 63 63 61 58 56 55 55 55 55 55 55 56 58 60 61 62 64 64 65 65 65 66 68 69 70 70 71 70 69 68 68 68 69 70 71 73 74 76 79 81 82 82 82 83 83 84 85 85 85 84 83 81 79 76 71 66 61 56 51 47 44 41
48 47 47 47 47 48 48 48 48 49 50 51 53 54 53 51 49 51 55 59 62 63 64 64 64 63 60 58 58 58 58 58 58 58 59 61 62 64 65 65 66 66 67 68 69 71 71 72 72 71 71 70 70 70 70 71 72 74 75 77 80 82 83 84 84 84 85 85 86 86 87 86 85 84 81 77 72 66 61 57 54 51 48 46 44
45 45 44 44 45 45 46 46 47 47 48 49 49 49 49 50 52 54 58 61 62 63 64 65 65 64 62 61 60 60 61 61 62 62 63 63 65 66 67 67 68 69 70 71 72 73 73 73 73 72 71 71 72 72 73 74 75 77 78 81 83 84 85 85 85 86 86 87 87 88 87 86 85 82 78 72 67 61 57 54 51 50 48 47 47
44 43 43 43 44 44 45 45 46 47 48 48 49 49 50 53 55 58 60 61 62 63 64 64 64 63 63 63 63 63 63 64 65 66 66 66 67 68 69 70 71 72 73 74 75 75 74 74 73 72 72 73 73 74 75 76 78 80 82 84 85 86 86 86 86 86 87 88 88 88 87 85 82 78 72 67 62 58 54 52 51 50 49 48 48
43 43 43 43 43 44 45 46 46 47 48 49 50 51 53 55 57 59 60 61 61 61 62 62 62 63 64 65 65 66 66 67 68 68 69 70 70 71 72 73 75 75 76 77 77 76 75 74 73 73 73 74 75 76 78 80 82 84 85 87 87 87 87 87 87 87 88 88 87 86 85 81 76 71 66 62 59 57 55 54 53 52 51 50 50
Wind_Direction
254 260 266 269 272 274 276 278 279 279 279 278 278 279 280 282 284 286 287 288 289 290 291 292 293 293 294 296 299 301 304 307 309 311 311 310 310 309 307 307 307 309 309 309 307 307 308 310 312 315 317 318 320 322 324 325 326 327 327 326 326 325 324 323 321 320 318 316 315 313 311 307 303 299 294 289 283 276 269 260 249 242 238 236 237
255 261 266 269 272 275 277 280 281 281 280 278 278 279 281 282 284 286 288 289 290 291 291 292 292 293 295 298 301 304 306 308 310 310 310 310 309 307 306 306 307 308 308 307 306 307 309 311 314 316 317 319 321 323 324 325 326 326 326 325 325 324 323 322 321 319 317 315 314 313 311 307 302 298 293 289 285 279 272 264 254 244 238 235 234
257 262 267 270 274 276 279 281 282 282 280 280 280 281 281 283 284 286 287 288 289 290 291 292 293 294 297 300 302 304 307 309 310 310 310 309 307 306 305 306 307 307 307 307 307 308 311 313 315 317 318 319 321 323 324 325 325 325 325 324 324 323 323 322 320 319 317 316 314 313 310 307 303 297 292 288 284 280 275 268 260 251 242 236 233
259 264 268 271 275 277 279 281 281 281 280 280 281 282 283 284 285 286 287 288 288 289 291 292 294 297 300 302 303 305 307 309 310 310 310 308 307 306 305 305 306 306 307 307 308 310 313 315 316 317 318 320 322 323 324 324 324 324 324 323 323 323 322 321 320 319 318 317 316 314 312 308 304 299 293 287 283 279 275 271 265 257 250 242 236
262 265 268 272 274 276 278 280 281 281 280 281 282 283 284 286 287 287 287 288 288 289 291 294 296 299 301 303 304 306 308 309 310 309 309 308 307 306 306 306 306 306 307 307 309 311 314 315 316 317 319 321 322 323 323 323 323 323 323 323 322 322 321 321 320 319 318 318 316 314 312 309 305 301 296 290 284 279 275 271 267 261 255 249 242
262 265 269 271 273 275 277 279 280 281 281 282 283 284 286 287 287 288 288 289 290 291 293 296 298 300 302 304 306 307 308 309 309 308 308 308 307 307 307 307 307 307 307 308 310 312 314 316 317 318 320 321 322 323 323 322 323 323 323 322 321 321 321 320 320 319 318 317 316 313 311 307 304 300 296 292 288 283 277 272 268 263 258 254 249
263 265 268 271 273 275 276 278 279 280 281 282 284 284 286 287 288 289 290 291 292 293 296 298 300 302 304 305 306 308 308 309 308 308 308 308 308 308 308 308 308 308 308 309 311 313 315 316 318 319 320 321 322 322 322 322 322 322 322 321 321 321 320 320 320 319 318 316 315 313 310 307 303 299 295 292 289 285 281 277 272 266 261 256 252
263 265 268 270 273 274 276 278 279 280 280 281 282 283 284 285 287 289 290 292 294 296 298 300 301 303 304 306 307 308 308 308 308 308 308 309 309 309 308 308 308 308 309 311 312 314 316 317 318 319 320 321 321 321 321 321 321 321 321 321 321 321 321 321 320 319 318 316 315 313 311 308 305 301 297 293 289 286 282 279 275 271 265 259 253
263 265 268 270 272 275 277 279 279 280 280 281 282 282 283 285 287 289 291 294 296 297 299 300 302 303 305 306 307 307 308 308 308 308 308 308 308 308 308 308 308 309 310 311 313 315 317 318 318 319 320 320 320 320 320 320 320 321 321 321 321 321 321 321 320 319 318 317 316 314 313 310 308 305 302 298 295 291 286 281 276 273 269 264 257
264 267 270 272 274 276 277 278 279 279 279 280 281 282 284 285 287 289 291 294 295 297 298 300 302 303 305 306 306 306 307 307 307 307 307 307 307 307 308 308 309 309 310 312 314 316 317 318 318 319 319 319 320 320 320 320 320 321 321 321 322 322 321 321 320 319 319 318 317 316 315 313 311 308 306 303 300 297 293 287 281 275 270 266 262
267 269 271 273 274 276 277 277 277 277 278 279 280 281 283 285 287 289 291 294 295 297 298 300 302 303 303 304 304 305 306 306 306 306 307 306 306 307 307 308 308 310 311 313 315 316 317 317 318 318 318 319 319 319 319 320 321 321 322 322 323 322 321 321 320 320 319 318 318 318 317 315 313 311 309 306 303 300 297 293 287 280 273 266 262
269 270 271 272 273 275 275 275 276 277 277 278 279 280 282 284 286 288 290 293 295 297 299 300 301 301 301 302 303 304 304 305 305 306 306 306 305 306 307 308 309 310 312 313 314 315 316 317 317 318 318 318 319 319 320 321 321 322 323 323 322 321 321 321 321 320 320 319 320 321 320 318 317 315 312 310 306 303 299 296 291 286 278 270 262
269 270 271 272 273 273 274 275 275 275 276 277 278 279 281 283 285 288 290 293 295 297 298 299 299 299 300 301 302 303 303 304 305 305 305 305 305 306 307 308 309 311 312 313 314 315 316 317 317 317 318 318 319 320 321 321 322 322 323 322 322 322 322 322 321 321 320 321 322 323 323 322 321 318 316 313 310 306 302 298 294 289 282 275 266
269 270 271 272 272 273 274 274 274 274 275 276 277 278 281 283 286 288 290 293 295 297 298 298 299 299 300 300 301 302 302 303 304 304 304 304 305 306 307 308 309 310 311 312 313 314 315 316 317 317 318 319 320 321 321 322 322 322 322 322 322 323 323 322 322 322 322 323 325 326 326 325 323 321 319 316 312 309 305 300 295 291 285 279 271
267 269 270 270 270 271 273 273 274 274 274 275 277 279 281 284 286 288 290 293 295 297 298 299 299 299 299 300 301 302 302 303 303 303 303 303 304 305 306 307 308 309 310 311 313 314 315 316 316 317 318 320 321 321 322 322 322 322 322 323 323 324 324 323 323 323 324 325 327 328 328 327 325 323 321 317 314 310 306 302 298 292 288 282 274
265 266 267 267 268 270 274 277 278 278 277 278 279 280 282 284 286 287 289 292 294 296 297 298 298 299 299 300 301 302 302 303 303 303 303 303 303 304 305 306 307 308 310 311 313 314 315 316 316 317 319 320 321 322 322 322 322 322 323 324 325 325 325 325 325 325 325 327 329 330 330 329 327 325 322 319 315 312 307 303 300 295 290 284 278
267 267 268 270 271 273 275 276 278 279 280 282 283 283 283 284 285 285 287 289 292 294 295 296 297 298 300 300 301 301 302 302 302 302 302 302 302 304 305 306 307 308 309 311 312 313 314 315 316 318 319 321 322 322 322 321 322 323 324 325 326 326 326 325 325 326 327 329 330 331 331 330 328 326 324 321 317 313 309 304 300 296 292 287 281
269 271 273 273 274 275 275 273 273 275 277 280 282 282 282 282 282 284 286 289 291 292 293 294 296 298 299 300 300 300 300 300 300 300 300 300 301 303 304 305 306 308 309 311 312 313 314 315 316 318 320 321 322 321 321 321 323 324 325 326 327 326 326 326 326 327 328 330 331 332 332 331 330 328 325 322 319 316 312 308 304 299 294 290 284
272 275 276 275 274 275 276 276 278 279 279 279 278 277 279 280 281 283 286 288 289 291 292 294 296 297 297 298 298 298 298 298 299 299 299 300 301 302 303 305 306 308 309 311 312 313 314 315 317 319 321 321 321 320 321 322 324 325 326 327 327 326 326 326 327 328 329 331 332 333 333 333 331 329 326 324 321 319 316 312 309 304 299 294 288
272 271 270 271 272 273 274 279 282 279 276 277 277 279 281 282 282 284 287 288 289 290 292 294 295 295 296 296 296 296 297 297 298 299 299 299 301 302 303 305 306 308 309 310 311 312 314 316 318 320 321 320 320 321 322 323 325 326 327 327 326 326 326 327 328 329 330 331 333 334 335 334 333 331 328 325 322 320 318 315 312 309 305 300 295
256 257 261 268 272 273 275 279 277 270 269 274 279 283 285 285 286 287 287 287 289 291 292 293 293 293 294 294 294 295 296 297 299 299 299 299 301 302 303 305 307 308 309 310 311 312 314 317 319 320 320 320 320 322 323 324 326 327 328 327 326 326 327 328 329 330 331 332 334 335 336 336 335 332 329 326 324 321 319 317 314 311 308 304 300
249 250 258 266 271 272 273 274 271 268 269 272 275 279 281 283 285 286 285 286 288 290 290 290 291 292 292 293 294 295 296 298 299 298 299 300 301 302 304 306 307 308 308 310 311 313 315 317 319 319 319 320 321 322 324 325 327 328 327 326 325 326 328 329 330 331 332 333 334 336 337 338 337 334 331 328 325 322 320 317 315 313 310 307 303
250 251 255 262 268 270 271 271 270 269 268 269 270 273 275 278 280 281 282 285 287 288 289 290 291 291 292 293 294 295 296 297 298 298 299 300 301 303 305 306 307 307 308 310 312 314 316 317 318 318 319 320 321 323 325 326 327 327 326 325 326 327 329 330 331 332 333 334 335 337 338 339 338 336 333 330 327 324 321 318 316 313 311 308 305
251 252 252 254 258 264 268 269 265 261 261 264 266 269 272 274 276 278 281 285 287 288 289 290 292 292 293 294 295 295 296 297 297 298 299 300 302 304 305 306 305 306 308 311 313 314 315 316 317 318 319 320 322 324 325 326 327 326 325 325 326 327 329 331 332 333 334 335 336 337 339 340 340 338 335 332 330 326 323 320 317 314 311 308 305
250 252 254 255 258 263 266 264 258 253 254 258 262 266 270 272 274 278 282 285 286 288 289 291 292 293 294 295 296 297 297 297 297 298 299 300 301 303 304 304 304 306 309 311 312 313 314 315 317 318 319 321 322 324 326 326 326 325 325 325 326 327 330 332 333 334 336 337 337 338 340 341 341 339 337 335 333 330 326 323 320 317 314 310 307
251 252 254 256 260 263 262 258 254 253 254 258 262 267 270 272 275 279 282 283 284 287 289 291 292 293 295 296 297 297 298 298 299 299 299 300 301 301 302 303 304 306 309 311 312 312 314 315 317 318 319 321 323 324 325 325 325 325 324 325 325 327 330 333 334 336 337 338 339 340 341 342 342 341 339 337 335 333 329 326 323 320 317 314 311
247 248 251 255 259 262 260 256 255 256 258 260 263 266 269 272 275 277 279 281 284 287 289 290 291 293 295 296 297 297 298 299 299 299 300 300 300 300 300 302 304 306 309 310 311 312 314 315 316 317 319 321 323 324 325 325 325 325 324 324 325 328 331 333 335 336 337 339 340 341 342 343 343 342 341 338 336 334 331 328 325 323 320 317 314
244 243 247 254 258 259 257 255 255 257 259 260 261 263 266 270 272 274 277 281 284 287 288 289 291 294 296 297 297 297 298 299 299 299 300 300 300 299 300 301 303 306 308 309 310 312 313 315 316 317 319 321 323 324 325 325 325 324 323 324 326 329 331 333 335 337 338 340 341 342 343 343 343 343 342 339 336 335 333 330 327 325 323 320 317
248 246 242 241 243 247 249 250 252 254 255 256 258 260 263 267 270 273 278 281 284 285 287 289 292 294 295 295 296 296 297 298 299 299 299 299 299 299 300 301 303 305 306 308 310 312 313 314 316 317 319 321 323 324 325 325 323 322 322 324 326 329 332 334 336 338 339 341 342 343 343 344 343 343 343 341 338 335 333 331 329 326 324 322 319
253 252 247 241 239 242 246 249 252 253 254 255 256 259 263 267 271 275 278 281 282 283 286 288 291 292 292 293 294 296 296 297 297 298 298 299 299 300 300 301 302 304 307 309 310 311 312 314 316 317 319 321 323 324 324 323 322 321 322 324 327 330 333 335 337 339 340 341 342 343 344 344 344 343 343 342 339 336 333 331 329 327 325 324 322
252 254 253 250 247 246 247 249 252 254 256 257 259 261 265 268 271 274 277 279 281 282 285 287 288 289 290 292 294 296 297 296 297 297 298 299 299 300 300 301 303 305 307 309 310 310 312 314 315 318 320 322 323 324 323 321 320 320 322 325 328 330 333 335 338 339 340 341 342 343 344 344 344 344 343 342 340 337 334 331 329 327 325 324 323
251 253 254 254 252 250 250 250 252 254 256 258 261 263 265 268 271 274 277 279 281 282 283 285 285 287 289 293 295 296 296 296 296 296 297 297 298 299 299 301 304 306 307 308 309 310 312 314 316 318 321 322 322 322 321 320 319 320 322 325 327 330 332 335 337 339 340 341 342 343 344 344 344 344 343 342 341 338 335 331 329 327 325 323 323
252 253 255 255 254 254 255 255 256 257 259 261 263 265 267 270 273 275 277 279 280 281 282 283 285 287 290 293 295 295 295 295 295 294 295 296 296 297 299 301 303 305 306 307 308 310 312 314 316 319 320 321 320 319 319 319 320 321 323 325 327 329 332 334 337 338 339 340 341 342 343 343 343 343 343 342 341 339 336 332 328 326 325 323 322
254 255 258 260 261 261 261 261 261 262 263 264 265 268 270 272 274 276 277 279 280 281 283 284 286 288 290 293 294 294 294 294 293 293 293 294 295 295 297 300 303 304 305 306 307 309 311 313 316 318 319 319 318 317 318 320 321 322 323 325 327 329 331 333 335 337 338 339 340 341 342 342 342 342 342 341 340 339 337 333 328 325 323 322 320
257 257 260 263 264 265 264 265 265 266 267 268 269 271 273 274 276 277 278 280 281 282 283 285 286 288 290 292 293 293 293 293 292 292 293 293 293 294 296 299 302 303 304 305 307 309 311 313 315 317 318 317 316 316 317 320 322 323 323 325 326 328 330 332 334 335 336 337 338 339 340 341 341 341 341 340 339 338 336 334 329 325 321 319 318
259 260 261 262 264 264 265 265 266 267 268 269 271 272 274 275 276 278 279 280 281 282 283 284 286 288 290 291 291 291 291 290 290 290 291 291 292 294 296 299 300 301 302 304 306 308 310 312 314 316 316 315 314 314 316 319 322 323 324 324 326 328 330 331 332 334 334 335 337 338 339 339 339 339 339 339 338 337 335 333 330 325 320 317 316
261 261 262 263 264 265 265 265 266 267 268 269 270 272 273 274 275 277 278 279 280 281 282 284 286 288 290 290 290 290 289 288 288 289 289 290 292 294 296 298 299 300 302 303 305 307 308 310 312 314 315 314 313 312 314 318 321 323 324 324 325 327 329 330 331 332 333 334 335 336 337 337 337 338 337 337 337 336 335 332 329 325 320 316 314
262 262 264 264 265 266 267 268 268 269 269 270 271 271 273 274 275 276 277 279 280 281 282 284 286 288 289 289 288 288 288 287 287 288 289 290 292 295 297 298 299 300 301 303 305 306 307 309 311 313 313 313 312 311 312 316 320 322 323 323 324 326 328 329 330 330 331 332 333 334 334 335 335 336 336 335 335 334 333 331 329 325 320 315 312
263 263 264 264 265 266 268 269 269 270 271 271 272 272 273 274 275 276 277 278 279 281 282 284 285 287 287 287 286 287 287 287 287 288 289 291 293 295 296 297 298 299 301 302 304 305 306 308 310 311 312 312 311 311 312 315 318 321 321 321 323 325 327 327 328 329 329 330 331 332 332 333 333 333 333 333 333 332 331 330 327 324 319 315 310
263 263 263 263 264 265 266 267 268 269 270 271 271 272 273 274 275 276 276 278 279 280 281 282 284 285 285 285 285 285 286 286 287 289 290 291 293 295 296 296 298 299 300 301 303 304 305 307 309 310 311 311 310 310 311 314 317 319 319 320 322 324 325 325 326 326 327 328 328 329 330 331 331 331 331 331 330 330 329 328 326 322 318 313 309
263 263 263 262 263 263 265 266 267 267 268 269 271 272 273 273 274 275 276 277 278 279 280 281 283 284 284 284 284 284 285 287 288 289 290 292 293 295 296 296 297 299 300 300 302 303 305 307 308 309 310 310 310 309 310 313 315 316 317 319 321 322 323 324 324 325 325 326 326 327 328 329 329 329 329 329 328 328 327 326 324 320 317 312 307
263 262 262 262 262 263 264 265 266 267 268 269 270 271 271 272 272 273 274 275 276 277 279 280 282 283 283 283 283 284 286 287 288 290 291 292 294 294 295 296 297 298 298 299 301 303 305 306 307 308 308 309 309 309 309 312 313 314 316 318 319 320 321 322 322 323 323 324 324 325 326 327 327 328 327 327 326 326 325 324 321 318 315 311 306
263 263 262 262 262 262 263 264 266 268 269 270 270 271 272 272 272 272 272 273 275 277 278 279 280 281 282 282 282 284 285 287 288 290 291 292 293 294 295 295 296 296 297 299 301 303 305 306 306 307 307 307 308 308 309 310 312 313 314 316 317 318 319 320 320 321 321 321 322 323 324 325 325 325 325 324 324 323 323 321 319 316 313 309 305
263 263 263 262 261 261 261 262 264 266 268 269 269 270 270 270 269 270 272 275 277 279 280 281 280 280 280 281 281 282 284 286 288 289 290 291 292 293 294 294 295 296 297 298 301 303 304 305 306 305 306 306 307 307 308 310 311 312 313 315 316 317 317 318 319 319 319 319 320 321 322 323 323 323 323 322 322 321 320 318 316 313 310 307 303
263 263 263 262 260 259 260 261 262 263 264 265 265 265 265 265 267 271 275 278 281 282 283 282 281 280 280 281 281 282 283 286 287 288 290 291 292 293 294 294 295 296 297 299 301 303 303 304 305 305 305 305 305 306 308 309 310 311 312 313 314 315 316 316 317 317 317 317 319 320 320 321 321 321 320 320 319 319 317 315 313 310 307 305 301
263 263 262 261 260 259 259 260 260 261 261 261 259 258 257 259 262 268 272 275 277 278 279 279 280 280 281 281 282 282 284 286 287 288 289 290 292 293 294 295 296 297 298 300 301 302 303 303 304 304 304 304 305 306 307 308 309 310 311 312 313 314 314 315 315 315 315 316 317 318 319 319 319 318 318 318 317 316 314 312 310 308 305 303 300
262 261 260 259 259 259 259 258 258 258 257 256 255 254 254 254 256 259 263 266 267 269 271 274 277 279 281 282 283 285 286 286 287 288 288 290 291 293 294 294 295 297 298 300 301 301 302 302 302 303 303 304 305 306 307 308 308 309 310 311 312 312 313 313 313 313 314 315 316 317 317 317 317 316 316 315 314 313 311 309 307 305 304 302 299
259 258 258 257 258 258 258 257 256 255 254 253 253 254 255 253 251 251 254 258 261 263 267 270 274 278 281 283 285 287 288 289 289 290 290 291 291 292 293 294 295 297 298 299 300 300 301 301 302 302 303 304 305 305 306 307 307 308 309 310 310 311 311 310 311 311 313 314 314 315 315 315 314 314 314 313 312 310 308 306 305 304 303 302 299
257 257 257 257 257 257 257 257 257 256 255 254 254 254 254 253 251 251 253 256 259 262 266 270 274 278 282 285 286 288 289 289 289 289 290 290 291 292 293 294 295 296 297 298 299 300 300 301 301 302 303 303 304 305 305 306 306 307 308 308 309 308 308 308 309 310 311 312 313 313 313 313 312 312 311 310 309 307 305 304 303 302 301 300 299
257 257 257 257 258 258 257 257 257 257 257 257 256 255 254 253 253 254 256 259 262 265 268 272 276 279 282 284 285 286 287 287 288 289 289 290 291 292 293 294 295 296 297 298 299 299 300 300 301 302 302 302 303 304 304 305 306 306 306 306 306 306 306 306 307 309 310 311 311 311 311 311 310 310 309 308 307 305 304 303 302 301 300 299 298
258 258 258 257 258 258 258 257 257 257 258 258 257 256 257 257 257 258 261 263 266 269 272 275 278 280 282 283 284 285 286 287 288 289 290 291 292 292 293 294 295 296 297 298 299 299 300 300 300 300 301 301 302 303 304 305 305 305 304 304 304 304 304 305 307 308 309 309 309 309 309 309 308 308 307 306 305 304 304 303 302 301 301 299 298
Height
10692 10692 10692 10693 10694 10694 10695 10696 10696 10695 10694 10693 10692 10692 10693 10693 10693 10693 10693 10693 10691 10690 10689 10688 10686 10685 10684 10683 10682 10681 10681 10680 10678 10676 10673 10669 10666 10662 10659 10657 10654 10651 10648 10645 10642 10640 10637 10634 10631 10627 10624 10620 10615 10611 10607 10603 10599 10595 10591 10587 10583 10579 10574 10569 10565 10561 10557 10553 10549 10545 10542 10540 10537 10535 10534 10532 10531 10531 10532 10533 10533 10533 10533 10535 10537
10687 10688 10688 10688 10689 10690 10691 10691 10691 10690 10689 10688 10688 10688 10688 10688 10689 10689 10689 10688 10687 10685 10685 10684 10682 10681 10679 10678 10676 10676 10675 10674 10673 10671 10668 10665 10661 10658 10654 10651 10648 10645 10643 10640 10637 10634 10632 10629 10625 10621 10617 10613 10609 10605 10601 10597 10593 10589 10585 10581 10577 10572 10568 10563 10559 10555 10551 10547 10543 10540 10537 10534 10532 10529 10527 10525 10524 10524 10524 10525 10526 10526 10525 10526 10528
10682 10683 10683 10684 10684 10685 10686 10686 10686 10685 10684 10683 10683 10684 10684 10684 10685 10684 10683 10683 10682 10681 10680 10679 10678 10677 10675 10673 10671 10670 10669 10669 10667 10665 10663 10660 10657 10653 10649 10645 10643 10640 10637 10635 10632 10629 10626 10623 10619 10615 10611 10607 10603 10599 10594 10590 10586 10582 10579 10574 10570 10565 10561 10556 10552 10548 10544 10540 10536 10533 10530 10528 10526 10524 10521 10519 10517 10516 10516 10517 10518 10518 10518 10518 10519
10678 10678 10679 10680 10680 10681 10681 10681 10681 10681 10679 10678 10678 10679 10680 10680 10680 10679 10678 10678 10677 10676 10675 10674 10673 10671 10669 10668 10666 10665 10664 10663 10661 10659 10657 10655 10652 10648 10644 10641 10638 10635 10632 10629 10626 10623 10620 10617 10613 10609 10605 10601 10597 10592 10588 10584 10580 10576 10572 10567 10563 10558 10553 10549 10544 10540 10536 10532 10529 10526 10522 10519 10517 10516 10515 10513 10511 10509 10508 10508 10509 10509 10509 10509 10510
10673 10674 10675 10676 10676 10677 10677 10677 10677 10676 10674 10674 10674 10674 10675 10675 10675 10674 10673 10673 10672 10671 10670 10669 10668 10666 10664 10662 10660 10659 10658 10656 10654 10652 10651 10649 10646 10643 10639 10636 10633 10630 10627 10625 10622 10618 10615 10611 10608 10603 10599 10595 10590 10586 10582 10578 10574 10569 10564 10560 10555 10551 10547 10542 10537 10533 10529 10525 10521 10518 10515 10512 10509 10506 10505 10504 10503 10502 10500 10498 10499 10500 10500 10500 10501
10669 10670 10671 10672 10672 10673 10673 10673 10673 10671 10670 10670 10670 10670 10671 10671 10670 10669 10668 10668 10667 10666 10665 10664 10662 10661 10659 10657 10654 10653 10651 10650 10648 10646 10645 10643 10640 10637 10634 10631 10628 10625 10623 10620 10617 10613 10609 10606 10602 10597 10593 10588 10584 10579 10575 10571 10567 10563 10558 10553 10548 10544 10540 10535 10531 10527 10523 10518 10514 10510 10507 10504 10501 10498 10495 10493 10492 10491 10491 10489 10488 10489 10490 10490 10490
10665 10666 10667 10667 10668 10668 10668 10669 10668 10666 10665 10665 10666 10666 10666 10666 10665 10664 10663 10663 10662 10661 10660 10658 10657 10655 10654 10651 10649 10647 10645 10644 10642 10640 10638 10636 10634 10631 10628 10625 10622 10620 10618 10615 10611 10608 10604 10600 10595 10591 10586 10582 10577 10573 10568 10565 10561 10556 10552 10546 10541 10536 10532 10528 10524 10520 10515 10511 10507 10503 10499 10495 10492 10488 10486 10483 10480 10479 10478 10478 10477 10477 10478 10479 10480
10661 10661 10662 10662 10663 10663 10664 10665 10663 10661 10660 10661 10661 10662 10662 10662 10660 10659 10658 10658 10657 10655 10654 10652 10651 10650 10648 10646 10644 10642 10640 10638 10636 10634 10632 10629 10627 10624 10621 10619 10617 10614 10612 10609 10606 10602 10598 10594 10589 10585 10580 10575 10571 10566 10562 10558 10554 10550 10545 10540 10534 10529 10524 10520 10515 10511 10507 10503 10498 10494 10490 10486 10482 10478 10474 10472 10470 10468 10466 10465 10464 10464 10464 10466 10468
10656 10657 10657 10657 10658 10659 10660 10660 10658 10656 10655 10656 10657 10657 10657 10656 10655 10654 10653 10652 10651 10650 10648 10647 10645 10644 10643 10641 10639 10636 10635 10633 10631 10629 10626 10624 10621 10619 10616 10614 10611 10609 10606 10604 10600 10597 10592 10588 10584 10579 10574 10570 10565 10560 10556 10551 10548 10544 10539 10533 10527 10522 10517 10512 10507 10502 10498 10493 10489 10485 10480 10475 10470 10466 10462 10458 10456 10455 10454 10454 10453 10452 10451 10452 10454
10651 10651 10652 10652 10653 10654 10655 10654 10653 10651 10651 10651 10652 10652 10652 10651 10650 10649 10648 10647 10646 10645 10643 10642 10640 10639 10637 10636 10633 10631 10629 10627 10625 10623 10621 10619 10616 10613 10611 10608 10606 10603 10601 10598 10595 10591 10587 10582 10578 10573 10569 10564 10559 10554 10549 10545 10541 10537 10533 10527 10521 10515 10510 10505 10500 10494 10489 10484 10479 10475 10470 10465 10460 10455 10451 10447 10444 10442 10441 10441 10441 10441 10441 10440 10441
10646 10646 10647 10647 10648 10649 10649 10648 10647 10647 10647 10647 10647 10647 10647 10646 10645 10644 10644 10642 10641 10639 10638 10637 10635 10634 10632 10631 10629 10627 10624 10622 10620 10618 10615 10613 10610 10608 10606 10603 10600 10598 10595 10592 10589 10585 10581 10576 10572 10567 10563 10558 10553 10548 10543 10538 10534 10530 10526 10521 10515 10508 10503 10498 10493 10487 10482 10476 10472 10467 10461 10456 10451 10446 10442 10438 10435 10432 10429 10428 10428 10429 10430 10430 10430
10640 10641 10641 10642 10643 10644 10643 10642 10642 10642 10642 10642 10642 10642 10642 10641 10640 10639 10639 10638 10636 10635 10633 10632 10631 10629 10627 10626 10624 10622 10620 10617 10615 10612 10610 10607 10605 10603 10600 10598 10595 10592 10589 10586 10583 10579 10575 10571 10566 10561 10556 10552 10548 10542 10537 10532 10527 10523 10519 10515 10509 10502 10496 10491 10486 10480 10475 10469 10464 10459 10453 10447 10441 10437 10432 10428 10425 10423 10421 10419 10418 10418 10419 10420 10421
10635 10636 10636 10637 10638 10638 10638 10637 10637 10637 10637 10637 10637 10637 10637 10636 10635 10635 10634 10633 10631 10630 10628 10627 10625 10624 10622 10621 10619 10617 10615 10612 10610 10607 10605 10602 10599 10597 10595 10592 10590 10587 10584 10581 10577 10574 10570 10565 10560 10555 10551 10546 10542 10537 10531 10526 10521 10517 10513 10508 10503 10497 10490 10484 10478 10473 10467 10462 10457 10451 10445 10439 10433 10428 10423 10419 10416 10414 10412 10410 10409 10409 10409 10410 10411
10630 10631 10632 10633 10633 10633 10632 10631 10632 10632 10633 10632 10632 10632 10631 10630 10629 10629 10629 10628 10626 10624 10623 10621 10620 10619 10617 10616 10614 10612 10609 10607 10605 10603 10599 10596 10593 10591 10589 10587 10584 10581 10578 10575 10572 10568 10564 10559 10555 10550 10545 10540 10536 10531 10526 10521 10515 10511 10506 10502 10496 10491 10485 10478 10472 10466 10460 10455 10450 10444 10438 10432 10426 10421 10416 10412 10408 10405 10403 10402 10401 10401 10400 10401 10402
10627 10627 10628 10628 10628 10628 10627 10627 10627 10628 10628 10628 10627 10627 10626 10625 10624 10624 10623 10622 10621 10619 10618 10617 10615 10614 10612 10610 10608 10606 10604 10602 10600 10597 10594 10591 10588 10585 10583 10581 10579 10576 10573 10570 10566 10562 10558 10554 10549 10544 10539 10535 10530 10525 10521 10516 10510 10505 10500 10495 10490 10484 10478 10472 10466 10459 10452 10447 10442 10437 10431 10426 10420 10415 10410 10406 10402 10399 10396 10394 10393 10393 10393 10393 10394
10623 10624 10623 10622 10623 10625 10624 10624 10624 10623 10623 10622 10622 10621 10621 10620 10619 10618 10617 10617 10616 10614 10613 10611 10610 10609 10607 10605 10603 10601 10599 10597 10594 10592 10588 10585 10582 10580 10578 10575 10573 10570 10567 10564 10560 10556 10552 10548 10543 10539 10534 10530 10525 10520 10516 10511 10506 10500 10494 10488 10483 10477 10472 10466 10460 10453 10446 10440 10435 10430 10425 10419 10413 10409 10405 10401 10398 10394 10391 10389 10387 10386 10386 10386 10387
10620 10619 10619 10619 10620 10622 10622 10621 10620 10619 10618 10617 10616 10616 10615 10614 10613 10612 10612 10612 10610 10609 10607 10606 10604 10603 10601 10599 10597 10595 10593 10591 10589 10586 10582 10579 10576 10575 10572 10570 10567 10564 10561 10558 10554 10550 10546 10542 10538 10534 10529 10524 10520 10515 10511 10506 10501 10495 10489 10482 10476 10470 10465 10460 10454 10448 10441 10435 10429 10424 10419 10413 10408 10403 10399 10396 10392 10389 10387 10385 10383 10381 10380 10380 10380
10616 10615 10615 10615 10616 10617 10617 10617 10616 10615 10613 10611 10610 10609 10609 10609 10608 10607 10607 10606 10605 10603 10602 10600 10598 10597 10595 10593 10591 10589 10588 10586 10583 10580 10577 10573 10571 10569 10567 10564 10561 10559 10555 10552 10548 10545 10541 10537 10533 10529 10524 10519 10515 10510 10506 10501 10496 10491 10484 10478 10471 10465 10459 10454 10449 10443 10437 10430 10424 10419 10414 10409 10403 10398 10394 10391 10388 10385 10382 10380 10378 10377 10376 10375 10374
10613 10612 10610 10609 10610 10612 10612 10613 10614 10612 10607 10604 10603 10603 10603 10603 10603 10602 10601 10600 10599 10597 10596 10594 10592 10590 10589 10587 10585 10584 10582 10580 10577 10574 10571 10568 10566 10564 10561 10558 10556 10552 10549 10546 10542 10539 10535 10531 10527 10523 10519 10514 10510 10505 10501 10496 10491 10486 10480 10474 10468 10461 10455 10449 10444 10438 10433 10427 10420 10414 10409 10404 10399 10394 10390 10386 10383 10380 10378 10375 10374 10372 10371 10370 10370
10612 10610 10606 10605 10606 10608 10609 10612 10614 10611 10602 10597 10595 10595 10596 10597 10597 10596 10595 10594 10593 10591 10589 10588 10586 10584 10583 10581 10579 10578 10576 10574 10572 10569 10565 10563 10560 10558 10555 10552 10549 10546 10543 10539 10536 10532 10529 10525 10521 10517 10513 10509 10505 10500 10496 10491 10485 10480 10475 10469 10464 10458 10452 10445 10439 10434 10428 10423 10417 10410 10405 10400 10395 10390 10386 10382 10379 10377 10374 10372 10370 10368 10367 10366 10365
10608 10605 10603 10602 10602 10603 10606 10610 10612 10606 10598 10592 10590 10588 10588 10589 10589 10589 10589 10587 10586 10585 10584 10582 10580 10578 10577 10576 10574 10572 10571 10569 10566 10563 10559 10557 10555 10552 10549 10546 10543 10540 10536 10533 10530 10526 10523 10519 10516 10512 10508 10504 10500 10495 10491 10485 10480 10474 10469 10465 10460 10455 10448 10442 10436 10430 10424 10419 10414 10408 10402 10396 10391 10386 10382 10378 10375 10373 10371 10369 10366 10365 10364 10362 10361
10601 10599 10599 10599 10596 10597 10603 10607 10606 10600 10593 10587 10585 10584 10583 10583 10583 10583 10583 10581 10580 10579 10578 10577 10575 10573 10572 10571 10569 10567 10565 10563 10560 10556 10553 10551 10549 10546 10543 10540 10537 10533 10530 10527 10523 10520 10517 10514 10510 10507 10503 10499 10494 10490 10485 10480 10475 10469 10464 10460 10455 10450 10445 10439 10433 10427 10421 10415 10410 10405 10399 10394 10389 10384 10379 10375 10371 10369 10367 10365 10363 10361 10360 10359 10358
10593 10594 10596 10595 10592 10593 10599 10602 10600 10595 10588 10582 10580 10580 10579 10579 10579 10578 10577 10576 10575 10574 10573 10571 10570 10568 10566 10565 10563 10561 10559 10556 10554 10550 10547 10545 10542 10539 10536 10533 10530 10527 10524 10521 10518 10514 10511 10508 10505 10501 10497 10493 10489 10485 10480 10475 10470 10465 10460 10455 10451 10446 10442 10436 10430 10424 10418 10412 10406 10401 10396 10391 10387 10382 10378 10373 10368 10365 10363 10362 10360 10358 10356 10354 10353
10587 10589 10592 10592 10591 10591 10594 10595 10592 10588 10583 10578 10576 10575 10575 10574 10574 10573 10572 10570 10569 10568 10567 10566 10564 10562 10560 10558 10557 10554 10552 10550 10547 10545 10542 10539 10536 10533 10530 10528 10524 10521 10518 10515 10512 10509 10506 10503 10499 10496 10492 10488 10484 10479 10475 10470 10465 10461 10456 10452 10447 10442 10438 10433 10428 10422 10416 10410 10404 10398 10393 10388 10383 10380 10376 10372 10367 10363 10360 10358 10356 10355 10353 10351 10349
10583 10585 10587 10588 10589 10589 10589 10587 10582 10579 10576 10573 10572 10571 10570 10570 10569 10568 10567 10565 10563 10562 10562 10560 10559 10556 10554 10552 10550 10548 10545 10543 10541 10539 10536 10533 10530 10527 10525 10522 10519 10516 10513 10510 10507 10504 10500 10497 10494 10490 10487 10483 10479 10474 10469 10465 10461 10456 10452 10448 10444 10439 10435 10430 10425 10419 10413 10407 10401 10395 10390 10385 10380 10376 10373 10369 10366 10361 10357 10354 10353 10352 10350 10348 10346
10578 10580 10581 10583 10584 10584 10583 10579 10573 10570 10569 10568 10567 10567 10566 10565 10564 10562 10561 10559 10558 10557 10556 10554 10552 10550 10548 10546 10544 10541 10538 10536 10535 10532 10529 10527 10524 10522 10519 10516 10513 10510 10507 10504 10501 10498 10495 10492 10488 10485 10481 10478 10473 10469 10465 10460 10456 10452 10448 10444 10440 10436 10432 10427 10422 10417 10411 10405 10399 10393 10388 10382 10377 10373 10369 10366 10363 10360 10356 10352 10349 10348 10347 10345 10343
10571 10573 10575 10576 10578 10578 10576 10572 10567 10564 10564 10563 10562 10562 10560 10559 10558 10556 10555 10554 10553 10552 10550 10548 10546 10545 10542 10540 10538 10535 10532 10530 10528 10525 10523 10520 10518 10516 10513 10510 10508 10505 10502 10499 10496 10493 10490 10486 10483 10479 10476 10472 10468 10464 10460 10455 10451 10448 10444 10440 10436 10432 10428 10424 10419 10414 10408 10403 10397 10391 10386 10380 10375 10371 10367 10363 10360 10357 10354 10351 10347 10344 10343 10342 10340
10564 10566 10569 10570 10571 10570 10569 10565 10562 10559 10559 10558 10557 10556 10554 10553 10551 10550 10549 10548 10547 10546 10544 10541 10540 10539 10537 10534 10531 10529 10526 10524 10521 10519 10517 10514 10512 10510 10507 10504 10502 10499 10496 10493 10491 10487 10484 10481 10478 10474 10471 10467 10463 10459 10454 10450 10447 10443 10440 10436 10432 10428 10424 10420 10415 10410 10405 10400 10395 10389 10384 10379 10374 10369 10365 10361 10358 10355 10352 10348 10345 10342 10339 10338 10337
10556 10559 10562 10563 10562 10562 10560 10558 10555 10554 10553 10552 10551 10549 10548 10546 10545 10544 10543 10542 10541 10540 10538 10535 10534 10533 10530 10527 10525 10523 10521 10518 10515 10513 10511 10508 10506 10503 10501 10498 10496 10494 10491 10488 10485 10482 10479 10476 10473 10469 10465 10461 10458 10454 10450 10446 10442 10439 10435 10432 10428 10424 10420 10416 10411 10406 10402 10397 10392 10387 10382 10377 10372 10367 10363 10359 10355 10352 10349 10346 10343 10340 10337 10334 10333
10550 10551 10553 10554 10554 10553 10552 10550 10548 10548 10547 10546 10544 10543 10541 10540 10539 10538 10537 10536 10535 10534 10532 10529 10528 10527 10524 10521 10519 10517 10515 10512 10509 10507 10505 10502 10500 10497 10495 10492 10490 10488 10485 10483 10480 10477 10474 10471 10467 10464 10460 10456 10452 10449 10445 10441 10438 10435 10431 10428 10424 10420 10416 10412 10407 10403 10398 10394 10390 10385 10380 10375 10370 10365 10361 10357 10353 10350 10347 10344 10341 10338 10335 10332 10329
10544 10544 10545 10545 10545 10545 10544 10543 10542 10541 10540 10539 10538 10536 10535 10533 10533 10532 10531 10530 10529 10528 10526 10524 10522 10520 10517 10515 10513 10511 10509 10506 10503 10501 10499 10496 10494 10491 10489 10487 10485 10482 10480 10477 10475 10472 10469 10466 10462 10459 10455 10451 10447 10444 10440 10437 10433 10430 10427 10423 10419 10415 10412 10408 10404 10399 10395 10391 10387 10382 10377 10373 10368 10363 10358 10354 10350 10347 10344 10341 10338 10336 10333 10330 10328
10539 10540 10538 10537 10536 10536 10536 10535 10535 10534 10533 10532 10531 10530 10528 10527 10526 10525 10524 10524 10523 10521 10519 10518 10515 10513 10511 10509 10507 10505 10502 10499 10497 10495 10492 10490 10488 10486 10483 10481 10479 10477 10475 10472 10469 10467 10464 10460 10457 10453 10449 10446 10442 10439 10436 10432 10429 10425 10422 10418 10414 10411 10407 10403 10400 10396 10392 10387 10383 10379 10375 10370 10365 10361 10356 10352 10348 10344 10340 10338 10335 10332 10330 10328 10325
10534 10534 10529 10526 10527 10528 10528 10528 10527 10527 10526 10525 10524 10523 10521 10520 10519 10518 10517 10517 10516 10514 10512 10511 10509 10506 10504 10502 10500 10498 10495 10493 10490 10488 10486 10484 10482 10480 10478 10476 10474 10471 10469 10467 10464 10461 10458 10455 10452 10448 10444 10441 10438 10435 10431 10428 10424 10421 10417 10413 10410 10406 10402 10399 10395 10391 10388 10384 10380 10376 10371 10367 10363 10358 10354 10350 10345 10341 10338 10334 10331 10329 10326 10324 10322
10527 10525 10520 10518 10520 10521 10520 10519 10519 10519 10518 10517 10516 10515 10514 10513 10512 10511 10510 10510 10508 10506 10504 10503 10502 10500 10497 10495 10493 10491 10488 10486 10483 10481 10479 10477 10475 10474 10472 10470 10468 10466 10464 10461 10459 10456 10453 10450 10446 10443 10440 10437 10434 10430 10427 10423 10419 10416 10412 10409 10405 10401 10397 10394 10391 10387 10384 10380 10376 10372 10368 10364 10360 10355 10351 10347 10343 10339 10335 10331 10328 10325 10323 10321 10318
10517 10517 10514 10513 10512 10511 10511 10511 10511 10510 10510 10509 10509 10508 10507 10505 10504 10503 10502 10502 10501 10498 10497 10496 10494 10492 10490 10487 10485 10483 10481 10479 10477 10474 10473 10471 10469 10467 10466 10464 10462 10460 10458 10456 10453 10451 10448 10445 10441 10438 10435 10432 10429 10426 10422 10418 10415 10411 10407 10404 10400 10396 10393 10389 10386 10382 10379 10375 10372 10368 10364 10360 10356 10352 10348 10344 10340 10336 10332 10329 10325 10322 10319 10317 10315
10508 10508 10508 10507 10505 10502 10502 10503 10502 10502 10502 10502 10501 10500 10499 10497 10496 10495 10494 10494 10493 10491 10489 10488 10486 10484 10482 10480 10478 10476 10473 10472 10470 10468 10466 10464 10463 10461 10460 10458 10457 10454 10452 10450 10448 10445 10442 10439 10436 10433 10430 10427 10424 10421 10417 10413 10410 10406 10402 10398 10395 10391 10388 10384 10380 10377 10374 10370 10367 10363 10359 10356 10352 10348 10345 10341 10337 10333 10329 10325 10322 10319 10316 10313 10311
10500 10499 10499 10498 10496 10493 10492 10494 10494 10494 10494 10494 10493 10492 10491 10489 10488 10487 10486 10485 10484 10483 10482 10480 10478 10476 10474 10472 10470 10468 10466 10464 10463 10461 10460 10458 10457 10455 10454 10452 10451 10449 10447 10444 10442 10439 10437 10434 10431 10428 10425 10422 10419 10415 10412 10408 10404 10401 10397 10393 10390 10386 10382 10379 10375 10372 10368 10365 10362 10358 10355 10351 10348 10344 10341 10337 10333 10329 10325 10321 10318 10315 10312 10309 10306
10491 10491 10491 10490 10487 10484 10483 10485 10485 10485 10485 10485 10484 10483 10482 10480 10479 10478 10477 10476 10476 10475 10473 10472 10470 10468 10467 10465 10463 10461 10459 10457 10456 10455 10453 10452 10450 10449 10448 10446 10444 10442 10440 10438 10436 10434 10431 10428 10426 10423 10419 10416 10413 10410 10406 10402 10399 10395 10392 10388 10384 10381 10377 10374 10370 10367 10363 10359 10356 10353 10350 10346 10343 10340 10336 10333 10329 10325 10321 10317 10314 10310 10307 10305 10302
10483 10483 10483 10481 10478 10476 10475 10475 10475 10475 10475 10475 10474 10473 10473 10471 10470 10469 10468 10468 10467 10466 10465 10464 10462 10461 10460 10458 10456 10455 10453 10452 10450 10448 10447 10445 10444 10443 10442 10440 10438 10436 10434 10432 10430 10427 10425 10422 10419 10416 10413 10410 10407 10404 10400 10396 10393 10389 10386 10382 10379 10375 10372 10368 10365 10362 10358 10354 10351 10348 10344 10341 10337 10334 10331 10328 10325 10321 10317 10313 10309 10306 10303 10300 10298
10474 10474 10474 10473 10471 10468 10466 10466 10467 10466 10466 10465 10464 10464 10464 10463 10462 10461 10460 10459 10458 10457 10456 10455 10454 10454 10452 10451 10449 10448 10447 10446 10444 10442 10441 10439 10438 10437 10435 10433 10431 10430 10427 10425 10423 10421 10418 10416 10413 10410 10407 10404 10401 10398 10394 10390 10386 10383 10380 10376 10373 10369 10366 10363 10360 10356 10353 10349 10345 10342 10338 10335 10331 10328 10325 10321 10318 10315 10312 10308 10304 10301 10297 10295 10292
10465 10465 10465 10464 10464 10461 10459 10458 10457 10457 10456 10456 10456 10456 10456 10455 10454 10453 10452 10451 10450 10449 10448 10447 10447 10446 10445 10444 10443 10442 10441 10439 10438 10436 10434 10433 10432 10431 10429 10427 10425 10423 10420 10418 10416 10414 10411 10409 10406 10403 10400 10397 10394 10391 10388 10384 10380 10376 10373 10370 10367 10363 10360 10358 10354 10351 10347 10344 10340 10336 10332 10329 10325 10322 10318 10315 10311 10308 10305 10303 10299 10295 10292 10289 10287
10455 10456 10455 10455 10455 10454 10452 10450 10448 10447 10448 10448 10448 10447 10447 10447 10446 10445 10444 10443 10443 10442 10441 10440 10439 10439 10437 10437 10436 10435 10434 10433 10431 10429 10428 10427 10426 10424 10422 10420 10418 10415 10413 10411 10409 10406 10404 10401 10399 10396 10393 10390 10388 10384 10381 10377 10373 10370 10366 10363 10360 10357 10354 10351 10348 10345 10342 10338 10334 10330 10326 10322 10319 10315 10312 10308 10305 10301 10298 10295 10292 10289 10286 10283 10281
10445 10445 10445 10445 10445 10444 10443 10441 10439 10438 10438 10439 10439 10439 10439 10439 10438 10437 10436 10436 10436 10435 10434 10434 10433 10432 10431 10430 10430 10429 10427 10426 10425 10423 10422 10420 10419 10417 10415 10413 10411 10408 10406 10404 10402 10399 10396 10393 10391 10389 10386 10383 10380 10377 10373 10370 10366 10363 10359 10356 10353 10350 10347 10344 10341 10339 10335 10332 10329 10325 10321 10316 10312 10309 10305 10301 10298 10294 10291 10288 10285 10282 10280 10277 10274
10435 10435 10435 10435 10435 10434 10433 10432 10431 10430 10429 10429 10430 10431 10431 10431 10430 10429 10428 10429 10429 10429 10428 10427 10426 10425 10424 10424 10423 10422 10421 10420 10418 10416 10415 10413 10411 10409 10408 10405 10403 10401 10399 10396 10394 10392 10388 10386 10383 10381 10378 10376 10373 10369 10365 10362 10358 10355 10352 10349 10345 10342 10339 10336 10334 10331 10328 10324 10322 10319 10315 10310 10306 10302 10298 10294 10290 10287 10284 10281 10278 10275 10272 10270 10268
10425 10425 10425 10425 10425 10424 10423 10423 10422 10421 10421 10421 10422 10423 10423 10423 10423 10423 10422 10422 10422 10422 10420 10420 10419 10418 10417 10417 10416 10415 10414 10413 10411 10409 10408 10406 10404 10402 10400 10398 10396 10393 10391 10388 10386 10384 10381 10378 10375 10373 10370 10367 10365 10361 10358 10354 10351 10347 10344 10341 10337 10334 10330 10327 10325 10322 10319 10316 10314 10311 10308 10304 10300 10296 10291 10287 10283 10279 10276 10273 10271 10268 10265 10263 10261
10416 10416 10416 10416 10415 10414 10414 10414 10413 10414 10414 10414 10415 10415 10415 10416 10417 10418 10417 10417 10416 10415 10413 10412 10411 10410 10410 10410 10409 10408 10407 10406 10404 10402 10401 10399 10397 10395 10393 10391 10388 10386 10383 10380 10378 10376 10373 10370 10367 10364 10361 10359 10356 10353 10350 10346 10343 10340 10337 10333 10330 10326 10322 10319 10316 10312 10309 10306 10304 10301 10298 10296 10292 10289 10285 10280 10276 10271 10267 10264 10262 10260 10258 10256 10254
10407 10407 10407 10407 10406 10406 10406 10406 10406 10407 10407 10407 10407 10407 10407 10409 10411 10411 10411 10410 10408 10407 10405 10404 10403 10403 10403 10402 10402 10401 10400 10399 10397 10395 10393 10391 10389 10387 10385 10383 10380 10378 10375 10372 10370 10367 10364 10362 10359 10355 10352 10349 10346 10344 10341 10338 10335 10332 10329 10325 10322 10318 10314 10311 10308 10304 10301 10298 10294 10291 10288 10285 10282 10279 10275 10272 10268 10264 10259 10256 10253 10251 10250 10249 10247
10398 10399 10399 10399 10399 10398 10398 10398 10399 10399 10400 10399 10399 10400 10402 10403 10403 10403 10402 10401 10399 10398 10398 10397 10397 10396 10396 10396 10395 10394 10393 10391 10389 10387 10385 10383 10381 10379 10377 10375 10372 10370 10367 10364 10361 10358 10355 10353 10350 10347 10343 10340 10337 10335 10332 10329 10326 10323 10320 10317 10313 10310 10306 10303 10299 10296 10292 10289 10285 10282 10279 10276 10272 10269 10266 10262 10259 10256 10252 10248 10245 10243 10242 10240 10239
10391 10391 10392 10392 10392 10391 10391 10391 10392 10392 10392 10392 10393 10394 10395 10395 10395 10394 10394 10392 10391 10391 10391 10390 10390 10390 10389 10389 10388 10386 10385 10383 10381 10379 10377 10375 10373 10371 10369 10366 10364 10361 10359 10356 10353 10350 10347 10344 10340 10337 10334 10331 10328 10325 10323 10320 10317 10314 10311 10308 10305 10301 10298 10294 10291 10287 10283 10279 10276 10273 10270 10266 10263 10259 10256 10253 10250 10247 10244 10242 10239 10237 10235 10233 10231
10383 10384 10385 10385 10385 10385 10385 10385 10385 10385 10385 10386 10386 10387 10388 10388 10387 10386 10386 10385 10385 10385 10384 10384 10384 10383 10382 10381 10380 10379 10377 10375 10373 10371 10369 10367 10364 10362 10360 10357 10355 10352 10350 10347 10344 10341 10338 10335 10332 10329 10326 10322 10319 10316 10313 10310 10307 10304 10302 10299 10296 10293 10289 10286 10282 10278 10274 10271 10267 10263 10260 10256 10252 10249 10245 10242 10240 10238 10236 10234 10232 10230 10228 10226 10223
10376 10377 10377 10378 10378 10378 10378 10379 10379 10379 10379 10380 10380 10380 10380 10380 10379 10379 10379 10379 10379 10378 10378 10378 10377 10376 10374 10373 10371 10370 10368 10366 10364 10361 10359 10357 10355 10353 10351 10349 10346 10343 10340 10337 10334 10331 10328 10326 10323 10320 10317 10314 10311 10308 10304 10301 10298 10295 10292 10289 10286 10283 10279 10275 10271 10267 10264 10261 10258 10255 10250 10246 10242 10239 10235 10232 10230 10228 10227 10225 10223 10222 10220 10218 10216